User: anonymous   Login
Location: Unspecified
(0.0000°N, 0.0000°E)
Time: 14:16:32
(UTC+00:00)
Language:

GOES 8 - Orbit

View from above orbital plane
View from above orbital plane
View from above satellite
View from above satellite

Ground track
Ground track

The orbit data is extracted from the following two-line orbital elements,

1 23051U 94022A   18114.45782816 -.00000013  00000-0  00000+0 0  9998
2 23051  11.7586  36.0441 0007649 278.8383 322.2319  0.98903186 94698
Epoch (UTC): 24 April 2018 10:59:16
Eccentricity: 0.0007649
inclination: 11.7586°
perigee height: 36142 km
apogee height: 36207 km
right ascension of ascending node: 36.0441°
argument of perigee: 278.8383°
revolutions per day: 0.98903186
mean anomaly at epoch: 322.2319°
orbit number at epoch: 9469

The dashed part of the orbit path shows where the satellite is in the earth's shadow,  

DLR